;H (mm);Q (m3/s);stage (m)
;;;
6/1/2014 17:30;0.00;0.557;0.108
6/1/2014 17:45;0.00;0.542;
6/1/2014 18:00;0.00;0.526;0.104
6/1/2014 18:15;0.00;0.511;0.102
6/1/2014 18:30;0.00;0.549;0.107
6/1/2014 18:45;0.00;0.489;0.099
6/1/2014 19:00;0.00;0.507;
6/1/2014 19:15;0.00;0.526;0.104
6/1/2014 19:30;0.00;0.475;0.097
6/1/2014 19:45;0.00;0.542;0.106
6/1/2014 20:00;0.00;0.496;0.1
6/1/2014 20:15;0.00;0.565;0.109
6/1/2014 20:30;0.00;0.511;0.102
6/1/2014 20:45;0.00;0.509;
6/1/2014 21:00;0.00;0.506;
6/1/2014 21:15;0.00;0.504;0.101
6/1/2014 21:30;0.19;0.534;0.105
6/1/2014 21:45;0.17;0.496;0.1
6/1/2014 22:00;0.34;0.511;0.102
6/1/2014 22:15;0.27;0.519;0.103
6/1/2014 22:30;0.25;0.519;0.103
6/1/2014 22:45;0.09;0.511;0.102
6/1/2014 23:00;0.08;0.526;
6/1/2014 23:15;0.19;0.542;0.106
6/1/2014 23:30;0.00;0.565;0.109
6/1/2014 23:45;0.16;0.59;0.112
7/1/2014 00:00;0.00;0.542;0.106
7/1/2014 00:15;0.00;0.598;0.113
7/1/2014 00:30;0.00;0.59;0.112
7/1/2014 00:45;0.09;0.549;0.107
7/1/2014 01:00;0.11;0.542;
7/1/2014 01:15;0.24;0.534;0.105
7/1/2014 01:30;0.12;0.59;0.112
7/1/2014 01:45;0.02;0.549;0.107
7/1/2014 02:00;0.00;0.557;0.108
7/1/2014 02:15;0.27;0.565;0.109
7/1/2014 02:30;0.48;0.549;0.107
7/1/2014 02:45;0.27;0.573;0.11
7/1/2014 03:00;0.48;0.542;0.106
7/1/2014 03:15;1.20;0.659;0.12
7/1/2014 03:30;0.66;0.686;
7/1/2014 03:45;0.68;0.714;0.126
7/1/2014 04:00;0.51;0.768;
7/1/2014 04:15;1.32;0.825;0.137
7/1/2014 04:30;1.53;0.995;0.152
7/1/2014 04:45;0.97;1.29;0.174
7/1/2014 05:00;0.60;1.335;0.177
7/1/2014 05:15;0.55;1.365;0.179
7/1/2014 05:30;0.59;1.412;0.182
7/1/2014 05:45;0.38;1.753;0.202
7/1/2014 06:00;0.43;1.645;0.196
7/1/2014 06:15;1.32;1.476;0.186
7/1/2014 06:30;1.28;1.945;0.212
7/1/2014 06:45;1.01;2.088;0.219
7/1/2014 07:00;0.20;2.433;
7/1/2014 07:15;0.45;2.817;0.25
7/1/2014 07:30;1.07;2.261;0.227
7/1/2014 07:45;1.85;2.239;0.226
7/1/2014 08:00;2.79;2.131;0.221
7/1/2014 08:15;2.28;4.26;0.297
7/1/2014 08:30;1.32;5.176;0.321
7/1/2014 08:45;0.75;5.095;
7/1/2014 09:00;0.26;5.014;0.317
7/1/2014 09:15;0.64;5.73;0.334
7/1/2014 09:30;0.37;6.915;0.359
7/1/2014 09:45;0.91;6.714;
7/1/2014 10:00;0.82;6.517;0.351
7/1/2014 10:15;0.64;6.493;
7/1/2014 10:30;0.11;6.469;0.35
7/1/2014 10:45;0.05;7.598;0.372
7/1/2014 11:00;0.01;6.664;
7/1/2014 11:15;0.24;5.819;
7/1/2014 11:30;0.12;5.055;
7/1/2014 11:45;0.36;4.367;0.3
7/1/2014 12:00;0.32;2.978;0.256
7/1/2014 12:15;0.79;2.978;0.256
7/1/2014 12:30;0.48;2.991;
7/1/2014 12:45;0.27;3.005;0.257
7/1/2014 13:00;0.43;3.784;0.283
7/1/2014 13:15;0.17;2.924;0.254
7/1/2014 13:30;0.52;2.89;
7/1/2014 13:45;0.37;2.857;
7/1/2014 14:00;0.21;2.824;
7/1/2014 14:15;0.19;2.791;0.249
7/1/2014 14:30;0.00;3.202;0.264
7/1/2014 14:45;0.00;2.398;0.233
7/1/2014 15:00;0.19;4.189;0.295
7/1/2014 15:15;0.01;2.765;0.248
7/1/2014 15:30;0.16;2.888;
7/1/2014 15:45;0.00;3.014;
7/1/2014 16:00;0.00;3.145;0.262
7/1/2014 16:15;0.00;2.398;0.233
7/1/2014 16:30;0.00;2.753;
7/1/2014 16:45;0.00;3.145;0.262
7/1/2014 17:00;0.00;3.687;0.28
7/1/2014 17:15;0.00;4.154;0.294
7/1/2014 17:30;0.00;3.899;
7/1/2014 17:45;0.00;3.655;0.279
7/1/2014 18:00;0.00;5.095;0.319
7/1/2014 18:15;0.00;3.949;0.288
7/1/2014 18:30;0.00;4.017;0.29
7/1/2014 18:45;0.00;3.687;0.28
7/1/2014 19:00;0.00;3.033;0.258
7/1/2014 19:15;0.00;3.289;0.267
7/1/2014 19:30;0.00;3.005;0.257
7/1/2014 19:45;0.00;2.54;0.239
7/1/2014 20:00;0.00;2.689;
7/1/2014 20:15;0.00;2.844;
7/1/2014 20:30;0.00;3.005;0.257
7/1/2014 20:45;0.00;2.765;0.248
7/1/2014 21:00;0.00;1.809;0.205
7/1/2014 21:15;0.00;1.985;
7/1/2014 21:30;0.00;2.173;
7/1/2014 21:45;0.00;2.375;0.232
7/1/2014 22:00;0.00;2.173;0.223
7/1/2014 22:15;0.00;2.067;0.218
7/1/2014 22:30;0.00;2.445;0.235
7/1/2014 22:45;0.00;2.421;0.234
7/1/2014 23:00;0.00;2.067;
7/1/2014 23:15;0.00;1.753;0.202
7/1/2014 23:30;0.00;2.088;0.219
7/1/2014 23:45;0.00;2.284;0.228
8/1/2014 00:00;0.00;2.217;0.225
8/1/2014 00:15;0.00;2.067;0.218
8/1/2014 00:30;0.00;2.492;0.237
8/1/2014 00:45;0.00;2.329;0.23
8/1/2014 01:00;0.00;1.925;0.211
8/1/2014 01:15;0.00;2.306;0.229
8/1/2014 01:30;0.00;2.352;0.231
8/1/2014 01:45;0.00;2.026;0.216
8/1/2014 02:00;0.00;1.965;0.213
8/1/2014 02:15;0.00;2.131;0.221
8/1/2014 02:30;0.00;2.131;0.221
8/1/2014 02:45;0.00;1.945;0.212
8/1/2014 03:00;0.00;2.047;0.217
8/1/2014 03:15;0.00;1.717;0.2
8/1/2014 03:30;0.00;1.772;0.203
8/1/2014 03:45;0.00;1.886;0.209
8/1/2014 04:00;0.00;1.809;0.205
8/1/2014 04:15;0.00;2.026;0.216
8/1/2014 04:30;0.00;1.945;0.212
8/1/2014 04:45;0.00;1.593;0.193
8/1/2014 05:00;0.00;1.772;0.203
8/1/2014 05:15;0.00;1.699;0.199
8/1/2014 05:30;0.00;1.772;0.203
8/1/2014 05:45;0.00;1.809;0.205
8/1/2014 06:00;0.00;1.906;0.21
8/1/2014 06:15;0.00;1.699;0.199
8/1/2014 06:30;0.00;1.965;0.213
8/1/2014 06:45;0.00;1.809;0.205
8/1/2014 07:00;0.00;1.681;0.198
8/1/2014 07:15;0.00;2.284;0.228
8/1/2014 07:30;0.00;2.375;0.232
8/1/2014 07:45;0.00;1.945;0.212
8/1/2014 08:00;0.00;1.925;0.211
8/1/2014 08:15;0.00;1.772;0.203
8/1/2014 08:30;0.00;1.945;0.212
8/1/2014 08:45;0.00;1.753;0.202
8/1/2014 09:00;0.00;1.681;0.198
8/1/2014 09:15;0.00;1.867;0.208
8/1/2014 09:30;0.00;1.828;0.206
8/1/2014 09:45;0.00;1.681;0.198
8/1/2014 10:00;0.00;1.576;0.192
8/1/2014 10:15;0.00;1.828;0.206
8/1/2014 10:30;0.00;1.645;0.196
8/1/2014 10:45;0.00;1.79;0.204
8/1/2014 11:00;0.00;1.492;0.187
8/1/2014 11:15;0.00;1.699;0.199
8/1/2014 11:30;0.00;1.593;0.193
8/1/2014 11:45;0.00;1.781;
8/1/2014 12:00;0.00;1.985;0.214
8/1/2014 12:15;0.00;1.681;0.198
8/1/2014 12:30;0.00;1.559;0.191
8/1/2014 12:45;0.00;1.886;0.209
8/1/2014 13:00;0.00;1.542;0.19
8/1/2014 13:15;0.00;1.663;0.197
8/1/2014 13:30;0.00;1.61;0.194
8/1/2014 13:45;0.00;1.681;0.198
8/1/2014 14:00;0.00;1.444;0.184
8/1/2014 14:15;0.00;1.396;0.181
8/1/2014 14:30;0.00;1.576;0.192
8/1/2014 14:45;0.00;1.61;0.194
8/1/2014 15:00;0.00;1.645;0.196
8/1/2014 15:15;0.00;1.593;0.193
8/1/2014 15:30;0.00;1.567;
8/1/2014 15:45;0.00;1.542;0.19
8/1/2014 16:00;0.00;1.396;0.181
8/1/2014 16:15;0.00;1.965;0.213
8/1/2014 16:30;0.00;1.492;0.187
8/1/2014 16:45;0.00;1.628;0.195
8/1/2014 17:00;0.00;1.492;0.187
8/1/2014 17:15;0.00;1.525;0.189
8/1/2014 17:30;0.00;1.509;0.188
8/1/2014 17:45;0.00;1.492;0.187
8/1/2014 18:00;0.00;1.396;0.181
8/1/2014 18:15;0.00;1.412;0.182
8/1/2014 18:30;0.00;1.365;0.179
8/1/2014 18:45;0.00;1.476;0.186
8/1/2014 19:00;0.00;1.365;0.179
8/1/2014 19:15;0.00;1.444;0.184
8/1/2014 19:30;0.00;1.542;0.19
8/1/2014 19:45;0.00;1.335;0.177
8/1/2014 20:00;0.00;1.444;0.184
8/1/2014 20:15;0.00;1.335;0.177
8/1/2014 20:30;0.00;1.381;0.18
8/1/2014 20:45;0.00;1.381;0.18
8/1/2014 21:00;0.00;1.428;0.183
8/1/2014 21:15;0.00;1.509;0.188
8/1/2014 21:30;0.00;1.261;0.172
8/1/2014 21:45;0.00;1.246;0.171
8/1/2014 22:00;0.00;1.35;0.178
8/1/2014 22:15;0.00;1.29;0.174
8/1/2014 22:30;0.00;1.335;0.177
8/1/2014 22:45;0.00;1.29;0.174
8/1/2014 23:00;0.00;1.32;0.176
8/1/2014 23:15;0.00;1.335;0.177
8/1/2014 23:30;0.00;1.46;0.185
8/1/2014 23:45;0.00;1.305;0.175
9/1/2014 00:00;0.00;1.305;0.175
9/1/2014 00:15;0.00;1.275;0.173
9/1/2014 00:30;0.00;1.381;0.18
9/1/2014 00:45;0.00;1.261;0.172
9/1/2014 01:00;0.00;1.218;0.169
9/1/2014 01:15;0.00;1.412;0.182
9/1/2014 01:30;0.00;1.218;0.169
9/1/2014 01:45;0.00;1.246;0.171
9/1/2014 02:00;0.00;1.29;0.174
9/1/2014 02:15;0.00;1.35;0.178
9/1/2014 02:30;0.00;1.29;0.174
9/1/2014 02:45;0.00;1.246;0.171
9/1/2014 03:00;0.00;1.305;0.175
9/1/2014 03:15;0.00;1.46;0.185
9/1/2014 03:30;0.00;1.305;0.175
9/1/2014 03:45;0.00;1.204;0.168
9/1/2014 04:00;0.00;1.261;0.172
9/1/2014 04:15;0.00;1.29;0.174
9/1/2014 04:30;0.00;1.204;0.168
9/1/2014 04:45;0.00;1.32;0.176
9/1/2014 05:00;0.00;1.246;0.171
9/1/2014 05:15;0.00;1.32;0.176
9/1/2014 05:30;0.00;1.246;0.171
9/1/2014 05:45;0.00;1.19;0.167
9/1/2014 06:00;0.00;1.396;0.181
9/1/2014 06:15;0.00;1.135;0.163
9/1/2014 06:30;0.00;1.275;0.173
9/1/2014 06:45;0.00;1.218;0.169
9/1/2014 07:00;0.03;1.305;0.175
9/1/2014 07:15;0.00;1.29;0.174
9/1/2014 07:30;0.00;1.275;0.173
9/1/2014 07:45;0.00;1.232;0.17
9/1/2014 08:00;0.00;1.204;0.168
9/1/2014 08:15;0.00;1.162;0.165
9/1/2014 08:30;0.00;1.29;0.174
9/1/2014 08:45;0.00;1.19;0.167
9/1/2014 09:00;0.00;1.32;0.176
9/1/2014 09:15;0.00;1.135;0.163
9/1/2014 09:30;0.00;1.261;0.172
9/1/2014 09:45;0.00;1.083;0.159
9/1/2014 10:00;0.00;1.29;0.174
9/1/2014 10:15;0.00;1.176;0.166
9/1/2014 10:30;0.00;1.261;0.172
9/1/2014 10:45;0.00;1.218;0.169
9/1/2014 11:00;0.00;1.204;0.168
9/1/2014 11:15;0.00;1.162;0.165
9/1/2014 11:30;0.00;1.129;
9/1/2014 11:45;0.00;1.096;0.16
9/1/2014 12:00;0.00;1.109;0.161
9/1/2014 12:15;0.00;1.109;0.161
9/1/2014 12:30;0.00;1.162;0.165
9/1/2014 12:45;0.00;1.149;0.164
9/1/2014 13:00;0.00;1.122;
9/1/2014 13:15;0.00;1.096;0.16
9/1/2014 13:30;0.00;1.057;0.157
9/1/2014 13:45;0.00;1.122;0.162
9/1/2014 14:00;0.00;1.109;0.161
9/1/2014 14:15;0.00;1.007;0.153
9/1/2014 14:30;0.00;1.051;
9/1/2014 14:45;0.00;1.096;0.16
9/1/2014 15:00;0.00;1.044;0.156
9/1/2014 15:15;0.00;1.135;0.163
9/1/2014 15:30;0.00;1.057;0.157
9/1/2014 15:45;0.00;1.176;0.166
9/1/2014 16:00;0.00;1.019;0.154
9/1/2014 16:15;0.00;1.019;0.154
9/1/2014 16:30;0.00;1.044;0.156
9/1/2014 16:45;0.00;1.218;0.169
9/1/2014 17:00;0.00;1.204;0.168
9/1/2014 17:15;0.00;0.983;0.151
9/1/2014 17:30;0.00;0.995;0.152
9/1/2014 17:45;0.00;1.246;0.171
9/1/2014 18:00;0.00;1.096;0.16
9/1/2014 18:15;0.00;1.007;0.153
9/1/2014 18:30;0.00;0.995;0.152
9/1/2014 18:45;0.00;1.057;0.157
9/1/2014 19:00;0.00;1.19;0.167
9/1/2014 19:15;0.00;1.149;0.164
9/1/2014 19:30;0.00;1.044;0.156
9/1/2014 19:45;0.00;1.057;0.157
9/1/2014 20:00;0.00;1.109;0.161
9/1/2014 20:15;0.00;1.109;0.161
9/1/2014 20:30;0.00;1.083;0.159
9/1/2014 20:45;0.00;1.135;0.163
9/1/2014 21:00;0.00;1.19;0.167
9/1/2014 21:15;0.00;1.044;0.156
9/1/2014 21:30;0.00;1.176;0.166
9/1/2014 21:45;0.00;1.07;0.158
9/1/2014 22:00;0.00;0.959;0.149
9/1/2014 22:15;0.00;0.983;0.151
9/1/2014 22:30;0.00;0.971;0.15
9/1/2014 22:45;0.00;1.044;0.156
9/1/2014 23:00;0.00;0.971;0.15
9/1/2014 23:15;0.00;1.149;0.164
9/1/2014 23:30;0.00;1.044;0.156
9/1/2014 23:45;0.00;1.176;0.166
10/1/2014 00:00;0.00;1.032;0.155
10/1/2014 00:15;0.00;0.959;0.149
10/1/2014 00:30;0.00;1.135;0.163
10/1/2014 00:45;0.00;1.019;0.154
10/1/2014 01:00;0.00;0.983;0.151
10/1/2014 01:15;0.00;0.983;0.151
10/1/2014 01:30;0.00;0.995;0.152
10/1/2014 01:45;0.00;1.07;0.158
10/1/2014 02:00;0.00;0.89;0.143
10/1/2014 02:15;0.00;0.901;0.144
10/1/2014 02:30;0.00;0.924;0.146
10/1/2014 02:45;0.00;0.983;0.151
10/1/2014 03:00;0.00;0.971;0.15
10/1/2014 03:15;0.00;0.971;0.15
10/1/2014 03:30;0.00;1.032;0.155
10/1/2014 03:45;0.00;1.007;0.153
10/1/2014 04:00;0.00;0.995;0.152
10/1/2014 04:15;0.00;0.924;0.146
10/1/2014 04:30;0.00;0.936;0.147
10/1/2014 04:45;0.00;0.995;0.152
10/1/2014 05:00;0.00;0.971;0.15
10/1/2014 05:15;0.00;0.835;0.138
10/1/2014 05:30;0.00;0.924;0.146
10/1/2014 05:45;0.00;0.971;0.15
10/1/2014 06:00;0.00;0.912;0.145
10/1/2014 06:15;0.00;0.995;0.152
10/1/2014 06:30;0.00;0.936;0.147
10/1/2014 06:45;0.00;0.959;0.149
10/1/2014 07:00;0.00;0.936;0.147
10/1/2014 07:15;0.00;1.007;0.153
10/1/2014 07:30;0.00;1.019;0.154
10/1/2014 07:45;0.00;0.947;0.148
10/1/2014 08:00;0.00;0.857;0.14
10/1/2014 08:15;0.00;1.044;0.156
10/1/2014 08:30;0.00;0.983;0.151
10/1/2014 08:45;0.00;0.857;0.14
10/1/2014 09:00;0.00;0.868;0.141
10/1/2014 09:15;0.00;1.109;0.161
10/1/2014 09:30;0.00;0.995;0.152
10/1/2014 09:45;0.00;0.947;0.148
10/1/2014 10:00;0.00;0.947;0.148
10/1/2014 10:15;0.00;0.868;0.141
10/1/2014 10:30;0.00;0.936;0.147
10/1/2014 10:45;0.00;1.019;0.154
10/1/2014 11:00;0.00;0.846;0.139
10/1/2014 11:15;0.00;0.793;0.134
10/1/2014 11:30;0.00;0.846;0.139
10/1/2014 11:45;0.00;0.89;0.143
10/1/2014 12:00;0.00;0.846;
10/1/2014 12:15;0.00;0.804;
10/1/2014 12:30;0.00;0.763;0.131
10/1/2014 12:45;0.00;0.783;
